User: anonymous   Login
Location: Newark
(54.0500°N, 12.8333°E)
Time: 20:05:13
(UTC+00:00)
Language:

Explorer 11/Cluster Stage 4 - Orbit

View from above orbital plane
View from above orbital plane
View from above satellite
View from above satellite

Ground track
Ground track

The orbit data is extracted from the following two-line orbital elements,

1   107U 61013A   20024.07027506 +.00000279 +00000-0 +14731-4 0  9992
2   107 028.7894 282.4958 0547088 209.1252 147.7728 14.08895115945702
Epoch (UTC): 24 January 2020 01:41:11
Eccentricity: 0.0547088
inclination: 28.7894°
perigee height: 467 km
apogee height: 1259 km
right ascension of ascending node: 282.4958°
argument of perigee: 209.1252°
revolutions per day: 14.08895115
mean anomaly at epoch: 147.7728°
orbit number at epoch: 94570

The dashed part of the orbit path shows where the satellite is in the earth's shadow,  

DLR